Location: Eschertshofen
(49.3064°N, 11.5756°E)
Time: 17:17:27
(UTC+00:00)

Cosmos 1898 Rocket - Pass Details

Date: 18 September 2020
Orbit: 753 x 784 km, 74.0° (Epoch: 31 October)

Event Time Altitude Azimuth Distance (km) Brightness Sun altitude
Rises 18:24:42 0° 209° (SSW) 3,194 6.9 -11.3°
Reaches altitude 10° 18:27:04 10° 211° (SSW) 2,273 6.1 -11.7°
Maximum altitude 18:32:12 70° 295° (WNW) 806 3.8 -12.5°
Drops below altitude 10° 18:37:23 10° 20° (NNE) 2,294 6.0 -13.3°
Sets 18:39:47 0° 23° (NNE) 3,227 6.7 -13.6°
